This is the latest recevied weather packets stored in our database for station/object SQ7IQO. If no packets are shown the sender has not sent any weather packets the latest 10 day(s).
| Time | Temp. | Humidity | Pressure | Rain* | Wind** | Luminosity | Snow |
|---|---|---|---|---|---|---|---|
| 1787996741 | 20° C | 83% | 1015 hPa | 0 mm | 1.34 m/s, ° | - | - |
| 1787996681 | 20.56° C | 84% | 1015 hPa | 0 mm | 1.34 m/s, ° | - | - |
| 1787996621 | 20° C | 87% | 1014.9 hPa | 0 mm | 0.45 m/s, ° | - | - |
| 1787996561 | 19.44° C | 86% | 1014.9 hPa | 0 mm | 0.45 m/s, ° | - | - |
| 1787996501 | 19.44° C | 87% | 1014.9 hPa | 0 mm | 0.89 m/s, ° | - | - |
| 1787996441 | 19.44° C | 86% | 1014.9 hPa | 0 mm | 1.79 m/s, ° | - | - |
| 1787996381 | 20° C | 84% | 1014.9 hPa | 0 mm | 1.34 m/s, ° | - | - |
| 1787996321 | 20° C | 86% | 1014.9 hPa | 0 mm | 0.89 m/s, ° | - | - |
| 1787996261 | 20° C | 87% | 1014.9 hPa | 0 mm | 0.45 m/s, ° | - | - |
| 1787996201 | 19.44° C | 89% | 1014.8 hPa | 0 mm | 0 m/s | - | - |
| 1787996141 | 18.89° C | 90% | 1014.8 hPa | 0 mm | 0 m/s | - | - |
| 1787996081 | 18.89° C | 89% | 1014.8 hPa | 0 mm | 0.89 m/s, ° | - | - |
| 1787996021 | 18.89° C | 91% | 1014.8 hPa | 0 mm | 0.89 m/s, ° | - | - |
| 1787995961 | 18.33° C | 91% | 1014.8 hPa | 0 mm | 0 m/s | - | - |
| 1787995901 | 18.33° C | 91% | 1014.8 hPa | 0 mm | 0.89 m/s, ° | - | - |
| 1787995841 | 18.89° C | 90% | 1014.8 hPa | 0 mm | 0.89 m/s, ° | - | - |
| 1787995781 | 18.89° C | 91% | 1014.8 hPa | 0 mm | 0.45 m/s, ° | - | - |
| 1787995721 | 18.89° C | 92% | 1014.7 hPa | 0 mm | 0.45 m/s, ° | - | - |
| 1787995661 | 18.33° C | 92% | 1014.7 hPa | 0 mm | 0 m/s | - | - |
| 1787995601 | 18.33° C | 92% | 1014.6 hPa | 0 mm | 0.89 m/s, ° | - | - |
| 1787995541 | 18.33° C | 91% | 1014.7 hPa | 0 mm | 0.89 m/s, ° | - | - |
| 1787995481 | 18.89° C | 93% | 1014.7 hPa | 0 mm | 0.89 m/s, ° | - | - |
| 1787995421 | 18.33° C | 92% | 1011.9 hPa | 0 mm | 0 m/s | - | - |
| 1787995361 | 17.78° C | 93% | 1014.7 hPa | 0 mm | 0 m/s | - | - |
| 1787995301 | 17.78° C | 93% | 1014.7 hPa | 0 mm | 0.89 m/s, ° | - | - |
* Rain latest hour (hover to see other rain measurements)
** Current wind speed in m/s (hover to see current wind gust speed)